Farmville, Virginia, United States (23901)
Lat: 37.30N, Lon: 78.39W
Wx Zone: VAZ060
Local Info
Past Weather Observations for Today

NOTE: This archive is for the closest National Weather Service station to Farmville. Information may differ from the station used for current weather conditions.

Click here for Long-term Archive

Time Weather Temperature Dewpoint Humidity Pressure Winds Precip Visibility
19:55
Clear
34°F / 1°C 9°F / -13°C 35% 30.21 in
(1023 mb)
N 3.5 mph
(N 6 kph)
- 10SM
19:35
Clear
34°F / 1°C 9°F / -13°C 35% 30.18 in
(1022 mb)
N 3.5 mph
(N 6 kph)
- 10SM
19:15
Clear
36°F / 2°C 7°F / -14°C 30% 30.18 in
(1022 mb)
NNE 3.5 mph
(NNE 6 kph)
- 10SM
18:55
Clear
36°F / 2°C 7°F / -14°C 30% 30.15 in
(1021 mb)
N 5.8 mph
(N 9 kph)
- 10SM
18:35
Clear
37°F / 3°C 7°F / -14°C 28% 30.15 in
(1021 mb)
N 5.8 mph
(N 9 kph)
- 10SM
18:15
Clear
37°F / 3°C 9°F / -13°C 30% 30.12 in
(1020 mb)
NNW 5.8 mph
(NNW 9 kph)
- 10SM
17:55
Clear
39°F / 4°C 9°F / -13°C 28% 30.12 in
(1020 mb)
N 10.4 mph
(N 17 kph)
- 10SM
17:35
Clear
41°F / 5°C 9°F / -13°C 26% 30.09 in
(1019 mb)
N 10.4 mph
(N 17 kph)
- 10SM
17:15
Clear
41°F / 5°C 7°F / -14°C 24% 30.09 in
(1019 mb)
NNW 6.9 mph
(NNW 11 kph)
- 10SM
16:55
Partly Cloudy
43°F / 6°C 7°F / -14°C 22% 30.06 in
(1018 mb)
NW 8.1 mph
(NW 13 kph)
- 10SM
16:35
Mostly Cloudy
43°F / 6°C 10°F / -12°C 26% 30.06 in
(1018 mb)
NNE 6.9 mph
(NNE 11 kph)
- 10SM
16:15
Overcast
43°F / 6°C 9°F / -13°C 24% 30.04 in
(1017 mb)
N 6.9 mph
(N 11 kph)
- 10SM
15:55
Mostly Cloudy
45°F / 7°C 9°F / -13°C 23% 30.04 in
(1017 mb)
WNW 3.5 mph
(WNW 6 kph)
- 10SM
15:35
Mostly Cloudy
43°F / 6°C 9°F / -13°C 24% 30.04 in
(1017 mb)
W 8.1 mph
(W 13 kph)
- 10SM
15:15
Overcast
45°F / 7°C 9°F / -13°C 23% 30.04 in
(1017 mb)
NW 6.9 mph
(NW 11 kph)
- 10SM
14:55
Mostly Cloudy
43°F / 6°C 9°F / -13°C 24% 30.04 in
(1017 mb)
W 8.1 mph
(W 13 kph)
- 10SM
14:35
Mostly Cloudy
43°F / 6°C 10°F / -12°C 26% 30.04 in
(1017 mb)
NW 5.8 mph
(NW 9 kph)
- 10SM
14:15
Mostly Cloudy
43°F / 6°C 10°F / -12°C 26% 30.04 in
(1017 mb)
NW 8.1 mph
(NW 13 kph)
- 10SM
13:55
Mostly Cloudy
41°F / 5°C 10°F / -12°C 28% 30.04 in
(1017 mb)
SSW 8.1 mph
(SSW 13 kph)
- 10SM
13:35
Mostly Cloudy
41°F / 5°C 12°F / -11°C 31% 30.04 in
(1017 mb)
NW 5.8 mph
(NW 9 kph)
- 10SM
13:15
Mostly Cloudy
41°F / 5°C 12°F / -11°C 31% 30.04 in
(1017 mb)
NW 8.1 mph
(NW 13 kph)
- 10SM
12:55
Overcast
39°F / 4°C 12°F / -11°C 33% 30.04 in
(1017 mb)
NW 6.9 mph
(NW 11 kph)
- 10SM
12:35
Overcast
39°F / 4°C 14°F / -10°C 36% 30.04 in
(1017 mb)
NNW 5.8 mph
(NNW 9 kph)
- 10SM
12:15
Overcast
39°F / 4°C 14°F / -10°C 36% 30.04 in
(1017 mb)
NW 6.9 mph
(NW 11 kph)
- 10SM
11:55
Overcast
39°F / 4°C 16°F / -9°C 39% 30.04 in
(1017 mb)
N 10.4 mph
(N 17 kph)
- 10SM
11:35
Overcast
39°F / 4°C 18°F / -8°C 42% 30.04 in
(1017 mb)
NNE 10.4 mph
(NNE 17 kph)
- 10SM
11:15
Overcast
37°F / 3°C 14°F / -10°C 38% 30.01 in
(1016 mb)
NW 6.9 mph
(NW 11 kph)
- 10SM
10:55
Mostly Cloudy
39°F / 4°C 14°F / -10°C 36% 30.01 in
(1016 mb)
NNW 6.9 mph
(NNW 11 kph)
- 10SM
10:35
Overcast
39°F / 4°C 14°F / -10°C 36% 30.04 in
(1017 mb)
NW 6.9 mph
(NW 11 kph)
- 10SM
10:15
Overcast
37°F / 3°C 12°F / -11°C 35% 30.04 in
(1017 mb)
NNW 4.6 mph
(NNW 7 kph)
- 10SM
09:55
Overcast
37°F / 3°C 12°F / -11°C 35% 30.04 in
(1017 mb)
NW 9.2 mph
(NW 15 kph)
- 10SM
09:35
Overcast
37°F / 3°C 16°F / -9°C 41% 30.01 in
(1016 mb)
NNW 5.8 mph
(NNW 9 kph)
- 10SM
09:15
Overcast
36°F / 2°C 14°F / -10°C 41% 30.01 in
(1016 mb)
NW 8.1 mph
(NW 13 kph)
- 10SM
08:55
Overcast
36°F / 2°C 14°F / -10°C 41% 30.01 in
(1016 mb)
NW 9.2 mph
(NW 15 kph)
- 10SM
08:35
Overcast
36°F / 2°C 14°F / -10°C 41% 30.01 in
(1016 mb)
NNW 6.9 mph
(NNW 11 kph)
- 10SM
08:15
Overcast
36°F / 2°C 18°F / -8°C 48% 30.01 in
(1016 mb)
NW 5.8 mph
(NW 9 kph)
- 10SM
07:55
Overcast
36°F / 2°C 18°F / -8°C 48% 30.01 in
(1016 mb)
NNW 4.6 mph
(NNW 7 kph)
- 10SM
07:35
Overcast
36°F / 2°C 19°F / -7°C 52% 29.98 in
(1015 mb)
NW 4.6 mph
(NW 7 kph)
- 10SM
07:15
Overcast
36°F / 2°C 19°F / -7°C 52% 29.98 in
(1015 mb)
NW 4.6 mph
(NW 7 kph)
- 10SM
06:55
Overcast
36°F / 2°C 21°F / -6°C 56% 29.98 in
(1015 mb)
NW 5.8 mph
(NW 9 kph)
- 10SM
06:35
Overcast
36°F / 2°C 27°F / -3°C 70% 29.95 in
(1014 mb)
Calm - 10SM
06:15
Overcast
Light Snow
36°F / 2°C 28°F / -2°C 75% 29.95 in
(1014 mb)
Calm - 10SM
05:55
Overcast
Light Snow
36°F / 2°C 28°F / -2°C 75% 29.95 in
(1014 mb)
Calm - 10SM
05:35
Overcast
Light Snow
36°F / 2°C 28°F / -2°C 75% 29.92 in
(1013 mb)
N 3.5 mph
(N 6 kph)
- 5SM
05:15
Overcast
Light Snow
37°F / 3°C 28°F / -2°C 70% 29.92 in
(1013 mb)
NNE 5.8 mph
(NNE 9 kph)
- 7SM
04:55
Overcast
37°F / 3°C 32°F / 0°C 81% 29.92 in
(1013 mb)
Calm - 10SM
04:35
Overcast
37°F / 3°C 30°F / -1°C 75% 29.89 in
(1012 mb)
Calm - 10SM
04:15
Overcast
39°F / 4°C 30°F / -1°C 70% 29.89 in
(1012 mb)
N 4.6 mph
(N 7 kph)
- 10SM
03:55
Overcast
39°F / 4°C 30°F / -1°C 70% 29.89 in
(1012 mb)
N 4.6 mph
(N 7 kph)
- 10SM
03:35
Overcast
39°F / 4°C 30°F / -1°C 70% 29.86 in
(1011 mb)
N 4.6 mph
(N 7 kph)
- 10SM
03:15
Overcast
39°F / 4°C 30°F / -1°C 70% 29.86 in
(1011 mb)
N 8.1 mph
(N 13 kph)
- 10SM
02:55
Overcast
39°F / 4°C 32°F / 0°C 75% 29.83 in
(1010 mb)
Calm - 10SM
02:35
Overcast
41°F / 5°C 28°F / -2°C 61% 29.86 in
(1011 mb)
Calm - 10SM
02:15
Overcast
41°F / 5°C 30°F / -1°C 66% 29.83 in
(1010 mb)
Calm - 10SM
01:55
Overcast
41°F / 5°C 28°F / -2°C 61% 29.86 in
(1011 mb)
Calm - 10SM
01:35
Overcast
41°F / 5°C 30°F / -1°C 66% 29.86 in
(1011 mb)
Calm - 10SM
01:15
Overcast
41°F / 5°C 30°F / -1°C 66% 29.86 in
(1011 mb)
NNW 3.5 mph
(NNW 6 kph)
- 10SM
00:55
Overcast
41°F / 5°C 30°F / -1°C 66% 29.86 in
(1011 mb)
NNW 6.9 mph
(NNW 11 kph)
- 10SM
00:35
Overcast
41°F / 5°C 32°F / 0°C 70% 29.86 in
(1011 mb)
NW 3.5 mph
(NW 6 kph)
- 10SM
00:15
Overcast
Drizzle
41°F / 5°C 32°F / 0°C 70% 29.83 in
(1010 mb)
Calm - 10SM
Time Weather Temperature Dewpoint Humidity Pressure Winds Precip Visibility


Weather for websites

WeatherForYou.com, LLC is not responsible for any damages or problems caused by this service. Current weather conditions are obtained from the closest station including government and personal stations which may have varying degrees of accuracy. Weather forecasts are derived from the NOAA NDFD. Like all things, this site belongs to Jesus Christ... He just trusts me to maintain it. If you have any questions or comments email webmaster@weatherforyou.com

Copyright © 2015, WeatherForYou.com LLC. All rights reserved.